COSMOS 1275 DEB, 13472

Orbit data source: Space-Track

COSMOS 1275 DEB, 13472 is space debris in LEO originally from a launch on Thu, 04 Jun 1981 UTC launched from the Plesetsk Missile And Space Complex (PKMTR). Debris objects in space refer to the collection of defunct objects orbiting the Earth. Examples of debris include non-operational satellites, rocket bodies, and fragments generated from explosions, collisions, or faulty payload assembly.

Loading next visibility...
Identifier
13472, 1981-053FU
Orbit
LEO
Country
Flag of CISCIS
Related business
Manufacturer
Unknown
Mission
Spacecraft
Bus & Motor
Unknown
Mass
Unknown
Launch date (UTC)
1981-06-04 (44 years ago)
Launch vehicle
Unknown
Launch site
Plesetsk Missile And Space Complex (PKMTR)
Object type
Payload
Rocket body
Debris
Shape & HBR
Unknown shape, 0.1 m
Radar Cross Section
Small (<0.1 m²)

Expand to show TLE details & history
Last TLE update: 18 hours ago

TLE from 18 hours ago
0 COSMOS 1275 DEB
1 13472U 81053FU  25286.24783766  .00008727  00000-0  31256-2 0  9993
2 13472  82.8477 175.8394 0016543 333.9869 172.0737 14.33819282213950
Epoch: 2025-10-13T05:56Z
TLE epoch observation values (Epoch: 2025-10-13T05:56:53.173Z)
Latitude
33.67947°
Longitude
-120.20677°
Altitude
795.175 km
Speed
7.453 km/s
True Right ascension
23h 24m 16s
True Declination
33° 31' 18"
Sunlit
Object was in full shadow at epoch
Visualization orbit readout
Latitude
Unknown
Longitude
Unknown
Altitude
Unknown
Speed
Unknown
Apparent Right ascension
Unknown
Apparent Declination
Unknown
Sunlit
N/A
Visualization observer readout
Local Sidereal Time
18:41:34
Azimuth
Unknown
Elevation
Unknown
Doppler factor
Unknown
Orbital elements
Apogee altitude
787.9 km
Perigee altitude
764.229 km
Semi-major axis
7,154.201 km
Eccentricity
0.00165
Inclination
82.8477°
RAAN
175.8394°
Arg. of periapsis
333.9869°
True anomaly
172.09979°
Mean anomaly
172.0737°
Eccentric anomaly
172.08675°
Mean motion
3.58675 °/min
Orbital period
100.37 mins
BSTAR
0.0031256
Loading maneuver chart data...
Computing Atmospheric mass density...
Loading historical data...
Loading historical data...
Loading historical data...
Loading historical data...
Loading historical data...
Loading historical data...
Loading historical data...

Documentation

Showing up to 5 results
|